Location: Cerda�ola
(41.4919°N, 2.1403°E)
Time: 00:23:00
(UTC+00:00)

HJ-1C - Pass Details

Date: 29 March 2020
Orbit: 431 x 447 km, 97.2° (Epoch: 27 May)

Event Time Altitude Azimuth Distance (km) Brightness Sun altitude
Rises 19:07:31 0° 175° (S) 2,411 6.9 -10.7°
Reaches altitude 10° 19:09:32 10° 178° (S) 1,550 6.0 -11.1°
Maximum altitude 19:12:49 60° 259° (W) 511 3.9 -11.7°
Drops below altitude 10° 19:16:10 10° 341° (NNW) 1,574 6.6 -12.3°
Sets 19:18:13 0° 345° (NNW) 2,452 7.6 -12.6°
